Flag for Austria Weather past 2 weeks in Wolfsberg, Carinthia, Austria

Now
86 °F

Partly sunny.


Feels Like: 84 °F
Forecast: 60 / 90 °F
Wind: 1 mph from North

Location: Zeltweg

Current Time: Aug 28, 2015 at 3:22:58 PM

Latest Report: Aug 28, 2015 at 2:50 PM


Visibility: 25 mi

Pressure: 30.12 "Hg

Humidity: 33%

Dew point: 54 °F

Location of WolfsbergLocation

Historic Weather in Wolfsberg — Graph

°F

Wolfsberg temperature yesterday

Maximum temperature yesterday: 82 °F (at 3:20 PM)
Minimum temperature yesterday: 50 °F (at 5:50 AM)
Average temperature yesterday: 69 °F

Past Weeks' High & Low Weather Summary

 TemperatureHumidityPressure
High88 °F (Aug 13, 2:50 PM)100% (Aug 17, 3:20 PM)30.27 "Hg (Aug 17, 3:20 PM)
Low48 °F (Aug 23, 6:50 AM)25% (Aug 13, 3:50 PM)29.77 "Hg (Aug 16, 3:50 PM)
Average65 °F71%30.04 "Hg
* Reported Aug 13 1:50 PM — Aug 28 1:50 PM, Wolfsberg, Weather by CustomWeather, © 2015

Note: Actual official high and low records may vary slightly from our data, if they occured in-between our weather recording intervals... More about our weather records

Advertising

Wolfsberg weather history for previous 24 hours

 ConditionsComfort  
Time TempWeatherWind HumidityBarometerVisibility
1:50 PM
Fri, Aug 28
82 °FPartly sunny.2 mph42%30.15 "Hg25 mi
1:20 PM81 °FPartly sunny.2 mph42%30.15 "Hg25 mi
12:50 PM79 °FScattered clouds.2 mph48%30.15 "Hg25 mi
12:20 PM79 °FScattered clouds.2 mph51%30.15 "Hg25 mi
11:50 AM75 °FPartly sunny.1 mph57%30.15 "Hg25 mi
11:20 AM72 °FPartly sunny.2 mph65%30.15 "Hg22 mi
10:50 AM72 °FPartly sunny.2 mph65%30.15 "Hg22 mi
10:20 AM70 °FPartly sunny.2 mph69%30.15 "Hg22 mi
9:50 AM66 °FPartly sunny.1 mph73%30.15 "Hg22 mi
9:20 AM64 °FScattered clouds.1 mph78%30.15 "Hg19 mi
8:50 AM63 °FScattered clouds.1 mph83%30.15 "Hg19 mi
8:20 AM59 °FScattered clouds.1 mph88%30.15 "Hg19 mi
7:50 AM57 °FScattered clouds.1 mph88%30.12 "Hg19 mi
7:20 AM55 °FPassing clouds.2 mph94%30.12 "Hg19 mi
6:50 AM54 °FFog.1 mph94%30.12 "Hg19 mi
5:50 AM55 °FFog.2 mph88%30.09 "Hg12 mi
4:50 AM55 °FClear.5 mph100%30.09 "Hg9 mi
10:50 PM
Thu, Aug 27
61 °FPassing clouds.1 mph83%30.07 "Hg12 mi
9:50 PM64 °FPassing clouds.3 mph78%30.07 "Hg12 mi
8:50 PM66 °FPartly sunny.5 mph73%30.07 "Hg12 mi
7:50 PM75 °FPartly sunny.5 mph57%30.04 "Hg25 mi
6:50 PM79 °FScattered clouds.3 mph51%30.04 "Hg31 mi
5:50 PM81 °FScattered clouds.10 mph42%30.04 "Hg31 mi
4:50 PM81 °FScattered clouds.12 mph42%30.04 "Hg31 mi
4:20 PM82 °FScattered clouds.7 mph40%30.04 "Hg31 mi
3:50 PM82 °FPartly sunny.6 mph40%30.04 "Hg31 mi
3:20 PM82 °FPartly sunny.3 mph40%30.04 "Hg31 mi
Weather by CustomWeather, © 2015

See weather overviewHow to use our weather pages